Cloud_Cover
0 0 0 0 0 0 0 0 0 0 0 0 0 0 0 0 0 0 0 0 0 0 0 0 0 11 4 90 98 100 100 100 100 100 100 100 100 100 100 100 100 100 100 100 100 100 100 100 100
0 0 0 0 0 0 0 0 0 0 0 0 0 0 0 0 0 0 0 0 0 0 0 0 0 0 1 0 0 4 92 69 100 100 100 91 61 98 100 100 100 100 100 100 100 100 100 100 100
0 0 0 0 0 0 0 0 0 0 0 0 0 0 0 0 0 0 0 0 0 0 0 0 0 0 0 0 0 0 1 52 100 50 65 100 13 16 42 88 100 100 100 100 100 100 100 92 81
0 0 0 0 0 0 0 0 0 0 0 0 0 0 0 0 0 0 0 0 0 0 0 0 0 0 0 0 0 0 0 0 2 0 5 15 62 98 27 48 46 100 89 98 100 100 100 100 100
0 0 0 0 0 0 0 0 0 0 0 0 0 0 0 0 0 0 0 0 0 0 0 0 0 0 0 0 0 0 0 0 0 0 0 0 0 5 13 6 21 8 17 55 68 97 100 100 100
0 0 0 0 0 0 0 0 0 0 0 0 0 0 0 0 0 0 0 0 0 0 0 0 0 0 0 0 0 0 0 0 0 0 0 0 0 0 0 0 2 4 19 93 100 83 100 100 100
0 0 0 0 0 0 0 0 0 0 0 0 0 0 0 0 0 0 0 0 0 0 0 0 0 0 0 0 0 0 0 0 0 0 0 0 0 0 0 0 0 0 0 1 4 58 99 17 8
0 0 0 0 0 0 0 0 0 0 0 0 0 0 0 0 0 0 0 0 0 0 0 0 0 0 0 0 0 0 0 0 0 0 0 0 0 0 0 0 0 0 0 0 0 0 0 4 5
0 0 0 0 0 0 0 0 0 0 0 0 0 0 0 0 0 0 0 0 0 0 0 0 0 0 0 0 0 0 0 0 0 0 0 0 0 0 0 0 0 0 0 0 0 0 0 0 0
0 0 0 0 0 0 0 0 0 0 0 0 0 0 0 0 0 0 0 0 0 0 0 0 0 0 0 0 0 0 0 0 0 0 0 0 0 0 0 0 0 0 0 0 0 0 0 0 0
0 0 0 0 0 0 0 0 0 4 0 0 0 0 0 0 0 0 0 0 0 0 0 0 0 0 0 0 0 0 0 0 0 0 0 0 0 0 0 0 0 0 0 0 0 0 0 0 0
0 0 0 0 0 0 0 0 0 1 1 0 0 0 0 0 0 0 0 0 0 0 0 0 0 0 0 0 0 0 0 0 0 0 0 0 0 0 0 0 1 0 0 0 0 0 0 0 0
0 0 0 0 0 0 0 0 0 0 1 2 0 0 0 0 0 0 0 0 0 0 0 0 0 0 0 0 0 0 0 0 0 0 0 0 0 0 0 5 4 0 0 0 4 0 0 0 0
0 0 0 0 0 0 0 0 0 1 1 0 0 0 0 0 0 0 0 0 0 0 0 0 0 0 0 0 0 0 0 0 0 0 0 0 3 0 3 5 2 16 5 5 3 0 0 0 0
0 0 0 0 0 0 0 3 0 0 4 0 0 0 0 0 0 0 0 0 0 0 0 0 0 0 0 0 5 6 5 6 5 29 44 9 2 30 11 93 64 89 92 22 5 5 2 5 0
0 0 0 0 0 0 0 5 0 0 0 0 4 0 0 0 0 0 1 0 0 0 0 0 0 0 0 5 4 5 19 99 90 70 92 100 98 94 71 100 100 97 60 39 48 20 5 0 0
1 0 0 5 1 0 0 4 0 5 1 0 0 0 0 0 0 4 5 0 0 0 0 0 0 0 0 0 5 5 4 16 20 54 82 100 100 100 100 100 100 89 13 64 100 62 5 2 2
5 0 4 5 2 2 22 4 0 5 2 5 0 0 0 0 0 6 4 0 2 5 0 0 0 0 5 25 10 1 0 0 0 0 7 46 96 91 84 100 90 57 54 100 100 99 8 2 5
5 1 0 5 2 0 5 48 5 3 0 0 5 0 0 0 0 1 0 0 2 5 4 0 0 0 18 32 46 5 0 1 0 0 5 5 13 62 11 46 100 100 100 100 97 17 5 5 0
24 4 4 1 0 0 2 70 100 4 4 0 0 0 0 0 0 1 5 0 1 24 5 0 0 0 10 97 100 77 5 23 5 5 5 5 6 60 100 100 100 100 89 13 82 8 4 5 5
100 4 4 5 6 5 5 95 100 98 75 57 93 83 59 5 0 4 4 0 0 4 0 0 0 81 100 100 100 71 73 72 80 50 19 60 91 52 26 8 6 29 88 98 32 66 6 5 5
32 98 4 5 2 6 67 100 100 100 100 100 100 100 71 5 5 0 0 0 0 0 0 0 19 100 100 100 100 100 96 23 5 5 5 5 1 5 5 6 57 99 86 16 5 21 5 1 0
5 16 29 6 5 0 8 3 100 100 100 100 100 100 100 100 100 37 31 29 26 7 26 98 100 100 100 100 82 96 5 5 5 4 4 1 4 5 5 5 5 5 5 10 22 21 5 6 5
100 65 16 28 57 84 88 1 95 100 100 100 100 100 100 77 34 78 93 100 100 99 100 100 99 96 100 97 100 100 100 5 2 0 5 2 3 5 5 5 28 34 5 5 7 26 42 74 99
100 100 75 8 12 100 100 12 93 45 34 100 100 100 100 100 100 65 42 82 100 100 100 96 94 74 99 100 100 100 100 98 7 4 2 6 64 7 5 5 5 5 8 4 5 44 100 100 100
100 100 100 88 75 100 100 27 100 100 100 88 32 100 100 100 100 100 6 28 58 56 55 9 12 96 100 100 100 100 100 98 58 21 95 10 6 5 5 11 5 5 45 28 66 98 100 100 100
100 100 100 100 100 100 100 100 100 100 100 100 100 100 100 100 100 99 29 5 1 5 7 34 72 62 80 100 100 100 100 91 85 98 77 5 44 4 0 1 3 5 83 94 100 100 100 100 100
100 100 100 100 98 60 80 100 100 100 100 100 100 100 100 100 100 92 91 10 5 47 26 55 91 100 100 100 100 100 100 100 100 100 56 5 5 3 4 5 5 5 5 41 100 100 100 100 100
100 100 100 100 100 82 59 94 100 100 100 100 100 100 100 100 100 100 100 100 78 17 13 20 49 89 100 63 65 85 84 95 21 24 25 15 5 5 5 11 2 2 5 44 92 100 100 100 100
100 100 100 100 100 100 80 25 100 100 100 100 100 100 100 100 100 92 6 99 100 91 100 62 9 7 5 5 27 51 42 36 5 5 5 5 5 2 5 5 5 5 5 20 100 100 100 100 100